Location: Hoyos del Collado
(40.3594°N, 5.2003°W)
Time: 02:00:31
(UTC+00:00)

Okean O Rocket - Pass Details

Date: 18 April 2024
Orbit: 619 x 639 km, 98.1° (Epoch: 25 May)

Event Time Altitude Azimuth Distance (km) Brightness Sun altitude
Exits shadow 21:02:13 11° 202° (SSW) 1,897 3.9 -21.1°
Maximum altitude 21:05:48 31° 263° (W) 1,101 3.2 -21.6°
Drops below altitude 10° 21:09:43 10° 326° (NW) 2,014 5.2 -22.2°
Sets 21:12:08 0° 337° (NNW) 2,930 6.1 -22.6°
